Tracking 32422 objects as of 8-Dec-2025
HD Live streaming from Space Station
objects crossing your sky now

METOP-C

Track METOP-C now!
10-day predictions


NORAD ID: 43689
Int'l Code: 2018-087A
Perigee: 826.3 km
Apogee: 828.5 km
Inclination: 98.7 °
Period: 101.3 minutes
Semi major axis: 7198 km
RCS: Unknown
Launch date: November 7, 2018
Source: European Organisation for the Exploitation of Meteorological Satellites (EUME)
Launch site: FRENCH GUIANA (FRGUI)
Your satellite tracking list
Your tracking list is empty




NASA's NSSDC Master Catalog

Two Line Element Set (TLE):
1 43689U 18087A   25341.89454031  .00000238  00000-0  12877-3 0  9994
2 43689  98.6936  39.7382 0001538  50.6529 309.4784 14.21508910367652
Source of the keplerian elements: AFSPC